Location: Arcueil
(48.7999°N, 2.3326°E)
Time: 23:38:10
(UTC+00:00)

Cosmos 2360 Rocket - Pass Details

Date: 03 February 2023
Orbit: 832 x 846 km, 71.0° (Epoch: 21 March)

Event Time Altitude Azimuth Distance (km) Brightness Sun altitude
Rises 19:47:26 0° 233° (SW) 3,380 5.9 -29.1°
Reaches altitude 10° 19:50:02 10° 241° (WSW) 2,452 5.2 -29.6°
Maximum altitude 19:55:15 38° 309° (NW) 1,272 3.4 -30.4°
Enters shadow 19:58:00 24° 360° (N) 1,692 3.8 -30.9°
